locationName,lineName,date,time,countIn,countOut
�����w�O,��������,2022/5/1,0:00,11,3
�����w�O,��������,2022/5/1,1:00,8,2
�����w�O,��������,2022/5/1,2:00,3,0
�����w�O,��������,2022/5/1,3:00,1,2
�����w�O,��������,2022/5/1,4:00,4,1
�����w�O,��������,2022/5/1,5:00,9,8
�����w�O,��������,2022/5/1,6:00,41,44
�����w�O,��������,2022/5/1,7:00,158,149
�����w�O,��������,2022/5/1,8:00,195,298
�����w�O,��������,2022/5/1,9:00,330,464
�����w�O,��������,2022/5/1,10:00,457,692
�����w�O,��������,2022/5/1,11:00,417,669
�����w�O,��������,2022/5/1,12:00,495,573
�����w�O,��������,2022/5/1,13:00,561,496
�����w�O,��������,2022/5/1,14:00,631,509
�����w�O,��������,2022/5/1,15:00,653,486
�����w�O,��������,2022/5/1,16:00,680,452
�����w�O,��������,2022/5/1,17:00,548,342
�����w�O,��������,2022/5/1,18:00,398,252
�����w�O,��������,2022/5/1,19:00,246,216
�����w�O,��������,2022/5/1,20:00,151,106
�����w�O,��������,2022/5/1,21:00,97,70
�����w�O,��������,2022/5/1,22:00,55,42
�����w�O,��������,2022/5/1,23:00,21,11
�����w�O,��������,2022/5/2,0:00,8,3
�����w�O,��������,2022/5/2,1:00,5,3
�����w�O,��������,2022/5/2,2:00,2,1
�����w�O,��������,2022/5/2,3:00,2,1
�����w�O,��������,2022/5/2,4:00,4,5
�����w�O,��������,2022/5/2,5:00,25,22
�����w�O,��������,2022/5/2,6:00,92,82
�����w�O,��������,2022/5/2,7:00,257,310
�����w�O,��������,2022/5/2,8:00,320,451
�����w�O,��������,2022/5/2,9:00,398,507
�����w�O,��������,2022/5/2,10:00,389,544
�����w�O,��������,2022/5/2,11:00,418,544
�����w�O,��������,2022/5/2,12:00,534,605
�����w�O,��������,2022/5/2,13:00,582,606
�����w�O,��������,2022/5/2,14:00,699,539
�����w�O,��������,2022/5/2,15:00,543,375
�����w�O,��������,2022/5/2,16:00,557,346
�����w�O,��������,2022/5/2,17:00,564,336
�����w�O,��������,2022/5/2,18:00,465,313
�����w�O,��������,2022/5/2,19:00,368,299
�����w�O,��������,2022/5/2,20:00,341,214
�����w�O,��������,2022/5/2,21:00,109,98
�����w�O,��������,2022/5/2,22:00,55,45
�����w�O,��������,2022/5/2,23:00,38,18
�����w�O,��������,2022/5/3,0:00,15,8
�����w�O,��������,2022/5/3,1:00,2,1
�����w�O,��������,2022/5/3,2:00,1,0
�����w�O,��������,2022/5/3,3:00,5,3
�����w�O,��������,2022/5/3,4:00,3,3
�����w�O,��������,2022/5/3,5:00,13,9
�����w�O,��������,2022/5/3,6:00,55,84
�����w�O,��������,2022/5/3,7:00,138,132
�����w�O,��������,2022/5/3,8:00,284,427
�����w�O,��������,2022/5/3,9:00,309,503
�����w�O,��������,2022/5/3,10:00,507,867
�����w�O,��������,2022/5/3,11:00,540,834
�����w�O,��������,2022/5/3,12:00,506,710
�����w�O,��������,2022/5/3,13:00,550,559
�����w�O,��������,2022/5/3,14:00,580,543
�����w�O,��������,2022/5/3,15:00,740,472
�����w�O,��������,2022/5/3,16:00,753,459
�����w�O,��������,2022/5/3,17:00,701,414
�����w�O,��������,2022/5/3,18:00,626,396
�����w�O,��������,2022/5/3,19:00,433,364
�����w�O,��������,2022/5/3,20:00,253,173
�����w�O,��������,2022/5/3,21:00,145,103
�����w�O,��������,2022/5/3,22:00,77,52
�����w�O,��������,2022/5/3,23:00,45,38
�����w�O,��������,2022/5/4,0:00,13,2
�����w�O,��������,2022/5/4,1:00,3,0
�����w�O,��������,2022/5/4,2:00,3,2
�����w�O,��������,2022/5/4,3:00,4,3
�����w�O,��������,2022/5/4,4:00,7,6
�����w�O,��������,2022/5/4,5:00,17,21
�����w�O,��������,2022/5/4,6:00,42,47
�����w�O,��������,2022/5/4,7:00,120,175
�����w�O,��������,2022/5/4,8:00,311,447
�����w�O,��������,2022/5/4,9:00,409,604
�����w�O,��������,2022/5/4,10:00,433,926
�����w�O,��������,2022/5/4,11:00,479,827
�����w�O,��������,2022/5/4,12:00,580,683
�����w�O,��������,2022/5/4,13:00,614,558
�����w�O,��������,2022/5/4,14:00,651,533
�����w�O,��������,2022/5/4,15:00,773,422
�����w�O,��������,2022/5/4,16:00,762,494
�����w�O,��������,2022/5/4,17:00,763,398
�����w�O,��������,2022/5/4,18:00,592,389
�����w�O,��������,2022/5/4,19:00,439,345
�����w�O,��������,2022/5/4,20:00,252,207
�����w�O,��������,2022/5/4,21:00,143,112
�����w�O,��������,2022/5/4,22:00,288,135
�����w�O,��������,2022/5/4,23:00,40,18
�����w�O,��������,2022/5/5,0:00,22,7
�����w�O,��������,2022/5/5,1:00,2,1
�����w�O,��������,2022/5/5,2:00,1,0
�����w�O,��������,2022/5/5,3:00,3,1
�����w�O,��������,2022/5/5,4:00,4,4
�����w�O,��������,2022/5/5,5:00,18,13
�����w�O,��������,2022/5/5,6:00,58,48
�����w�O,��������,2022/5/5,7:00,94,114
�����w�O,��������,2022/5/5,8:00,215,314
�����w�O,��������,2022/5/5,9:00,276,454
�����w�O,��������,2022/5/5,10:00,437,722
�����w�O,��������,2022/5/5,11:00,412,692
�����w�O,��������,2022/5/5,12:00,467,593
�����w�O,��������,2022/5/5,13:00,669,562
�����w�O,��������,2022/5/5,14:00,559,453
�����w�O,��������,2022/5/5,15:00,585,298
�����w�O,��������,2022/5/5,16:00,0,0
�����w�O,��������,2022/5/5,17:00,0,0
�����w�O,��������,2022/5/5,18:00,0,0
�����w�O,��������,2022/5/5,19:00,0,0
�����w�O,��������,2022/5/5,20:00,0,0
�����w�O,��������,2022/5/5,21:00,0,0
�����w�O,��������,2022/5/5,22:00,0,0
�����w�O,��������,2022/5/5,23:00,0,0
�����w�O,��������,2022/5/6,0:00,0,0
�����w�O,��������,2022/5/6,1:00,0,0
�����w�O,��������,2022/5/6,2:00,0,0
�����w�O,��������,2022/5/6,3:00,0,0
�����w�O,��������,2022/5/6,4:00,0,0
�����w�O,��������,2022/5/6,5:00,0,0
�����w�O,��������,2022/5/6,6:00,0,0
�����w�O,��������,2022/5/6,7:00,0,0
�����w�O,��������,2022/5/6,8:00,0,0
�����w�O,��������,2022/5/6,9:00,0,0
�����w�O,��������,2022/5/6,10:00,0,0
�����w�O,��������,2022/5/6,11:00,0,0
�����w�O,��������,2022/5/6,12:00,0,0
�����w�O,��������,2022/5/6,13:00,0,0
�����w�O,��������,2022/5/6,14:00,0,0
�����w�O,��������,2022/5/6,15:00,0,0
�����w�O,��������,2022/5/6,16:00,0,0
�����w�O,��������,2022/5/6,17:00,0,0
�����w�O,��������,2022/5/6,18:00,0,0
�����w�O,��������,2022/5/6,19:00,0,0
�����w�O,��������,2022/5/6,20:00,0,0
�����w�O,��������,2022/5/6,21:00,0,0
�����w�O,��������,2022/5/6,22:00,0,0
�����w�O,��������,2022/5/6,23:00,0,0
�����w�O,��������,2022/5/7,0:00,0,0
�����w�O,��������,2022/5/7,1:00,0,0
�����w�O,��������,2022/5/7,2:00,0,0
�����w�O,��������,2022/5/7,3:00,0,0
�����w�O,��������,2022/5/7,4:00,0,0
�����w�O,��������,2022/5/7,5:00,0,0
�����w�O,��������,2022/5/7,6:00,0,0
�����w�O,��������,2022/5/7,7:00,0,0
�����w�O,��������,2022/5/7,8:00,0,0
�����w�O,��������,2022/5/7,9:00,0,0
�����w�O,��������,2022/5/7,10:00,0,0
�����w�O,��������,2022/5/7,11:00,0,0
�����w�O,��������,2022/5/7,12:00,0,0
�����w�O,��������,2022/5/7,13:00,0,0
�����w�O,��������,2022/5/7,14:00,0,0
�����w�O,��������,2022/5/7,15:00,0,0
�����w�O,��������,2022/5/7,16:00,0,0
�����w�O,��������,2022/5/7,17:00,0,0
�����w�O,��������,2022/5/7,18:00,0,0
�����w�O,��������,2022/5/7,19:00,0,0
�����w�O,��������,2022/5/7,20:00,0,0
�����w�O,��������,2022/5/7,21:00,0,0
�����w�O,��������,2022/5/7,22:00,0,0
�����w�O,��������,2022/5/7,23:00,0,0
�����w�O,��������,2022/5/8,0:00,0,0
�����w�O,��������,2022/5/8,1:00,0,0
�����w�O,��������,2022/5/8,2:00,0,0
�����w�O,��������,2022/5/8,3:00,0,0
�����w�O,��������,2022/5/8,4:00,0,0
�����w�O,��������,2022/5/8,5:00,0,0
�����w�O,��������,2022/5/8,6:00,0,0
�����w�O,��������,2022/5/8,7:00,0,0
�����w�O,��������,2022/5/8,8:00,0,0
�����w�O,��������,2022/5/8,9:00,0,0
�����w�O,��������,2022/5/8,10:00,0,0
�����w�O,��������,2022/5/8,11:00,0,0
�����w�O,��������,2022/5/8,12:00,0,0
�����w�O,��������,2022/5/8,13:00,0,0
�����w�O,��������,2022/5/8,14:00,0,0
�����w�O,��������,2022/5/8,15:00,0,0
�����w�O,��������,2022/5/8,16:00,0,0
�����w�O,��������,2022/5/8,17:00,0,0
�����w�O,��������,2022/5/8,18:00,0,0
�����w�O,��������,2022/5/8,19:00,0,0
�����w�O,��������,2022/5/8,20:00,0,0
�����w�O,��������,2022/5/8,21:00,0,0
�����w�O,��������,2022/5/8,22:00,0,0
�����w�O,��������,2022/5/8,23:00,0,0
�����w�O,��������,2022/5/9,0:00,0,0
�����w�O,��������,2022/5/9,1:00,0,0
�����w�O,��������,2022/5/9,2:00,0,0
�����w�O,��������,2022/5/9,3:00,0,0
�����w�O,��������,2022/5/9,4:00,0,0
�����w�O,��������,2022/5/9,5:00,0,0
�����w�O,��������,2022/5/9,6:00,0,0
�����w�O,��������,2022/5/9,7:00,0,0
�����w�O,��������,2022/5/9,8:00,0,0
�����w�O,��������,2022/5/9,9:00,0,0
�����w�O,��������,2022/5/9,10:00,0,0
�����w�O,��������,2022/5/9,11:00,0,0
�����w�O,��������,2022/5/9,12:00,0,0
�����w�O,��������,2022/5/9,13:00,0,0
�����w�O,��������,2022/5/9,14:00,0,0
�����w�O,��������,2022/5/9,15:00,0,0
�����w�O,��������,2022/5/9,16:00,0,0
�����w�O,��������,2022/5/9,17:00,0,0
�����w�O,��������,2022/5/9,18:00,0,0
�����w�O,��������,2022/5/9,19:00,0,0
�����w�O,��������,2022/5/9,20:00,0,0
�����w�O,��������,2022/5/9,21:00,0,0
�����w�O,��������,2022/5/9,22:00,0,0
�����w�O,��������,2022/5/9,23:00,0,0
�����w�O,��������,2022/5/10,0:00,0,0
�����w�O,��������,2022/5/10,1:00,0,0
�����w�O,��������,2022/5/10,2:00,0,0
�����w�O,��������,2022/5/10,3:00,0,0
�����w�O,��������,2022/5/10,4:00,0,0
�����w�O,��������,2022/5/10,5:00,0,0
�����w�O,��������,2022/5/10,6:00,0,0
�����w�O,��������,2022/5/10,7:00,0,0
�����w�O,��������,2022/5/10,8:00,0,0
�����w�O,��������,2022/5/10,9:00,0,0
�����w�O,��������,2022/5/10,10:00,0,0
�����w�O,��������,2022/5/10,11:00,0,0
�����w�O,��������,2022/5/10,12:00,0,0
�����w�O,��������,2022/5/10,13:00,0,0
�����w�O,��������,2022/5/10,14:00,0,0
�����w�O,��������,2022/5/10,15:00,0,0
�����w�O,��������,2022/5/10,16:00,0,0
�����w�O,��������,2022/5/10,17:00,0,0
�����w�O,��������,2022/5/10,18:00,0,0
�����w�O,��������,2022/5/10,19:00,0,0
�����w�O,��������,2022/5/10,20:00,0,0
�����w�O,��������,2022/5/10,21:00,0,0
�����w�O,��������,2022/5/10,22:00,0,0
�����w�O,��������,2022/5/10,23:00,0,0
�����w�O,��������,2022/5/11,0:00,0,0
�����w�O,��������,2022/5/11,1:00,0,0
�����w�O,��������,2022/5/11,2:00,0,0
�����w�O,��������,2022/5/11,3:00,0,0
�����w�O,��������,2022/5/11,4:00,0,0
�����w�O,��������,2022/5/11,5:00,0,0
�����w�O,��������,2022/5/11,6:00,0,0
�����w�O,��������,2022/5/11,7:00,0,0
�����w�O,��������,2022/5/11,8:00,0,0
�����w�O,��������,2022/5/11,9:00,0,0
�����w�O,��������,2022/5/11,10:00,0,0
�����w�O,��������,2022/5/11,11:00,0,0
�����w�O,��������,2022/5/11,12:00,0,0
�����w�O,��������,2022/5/11,13:00,0,0
�����w�O,��������,2022/5/11,14:00,0,0
�����w�O,��������,2022/5/11,15:00,0,0
�����w�O,��������,2022/5/11,16:00,0,0
�����w�O,��������,2022/5/11,17:00,0,0
�����w�O,��������,2022/5/11,18:00,0,0
�����w�O,��������,2022/5/11,19:00,0,0
�����w�O,��������,2022/5/11,20:00,0,0
�����w�O,��������,2022/5/11,21:00,0,0
�����w�O,��������,2022/5/11,22:00,0,0
�����w�O,��������,2022/5/11,23:00,0,0
�����w�O,��������,2022/5/12,0:00,0,0
�����w�O,��������,2022/5/12,1:00,0,0
�����w�O,��������,2022/5/12,2:00,0,0
�����w�O,��������,2022/5/12,3:00,0,0
�����w�O,��������,2022/5/12,4:00,0,0
�����w�O,��������,2022/5/12,5:00,0,0
�����w�O,��������,2022/5/12,6:00,0,0
�����w�O,��������,2022/5/12,7:00,0,0
�����w�O,��������,2022/5/12,8:00,0,0
�����w�O,��������,2022/5/12,9:00,0,0
�����w�O,��������,2022/5/12,10:00,0,0
�����w�O,��������,2022/5/12,11:00,0,0
�����w�O,��������,2022/5/12,12:00,0,0
�����w�O,��������,2022/5/12,13:00,0,0
�����w�O,��������,2022/5/12,14:00,0,0
�����w�O,��������,2022/5/12,15:00,0,0
�����w�O,��������,2022/5/12,16:00,0,0
�����w�O,��������,2022/5/12,17:00,0,0
�����w�O,��������,2022/5/12,18:00,0,0
�����w�O,��������,2022/5/12,19:00,0,0
�����w�O,��������,2022/5/12,20:00,0,0
�����w�O,��������,2022/5/12,21:00,0,0
�����w�O,��������,2022/5/12,22:00,0,0
�����w�O,��������,2022/5/12,23:00,0,0
�����w�O,��������,2022/5/13,0:00,0,0
�����w�O,��������,2022/5/13,1:00,0,0
�����w�O,��������,2022/5/13,2:00,0,0
�����w�O,��������,2022/5/13,3:00,0,0
�����w�O,��������,2022/5/13,4:00,0,0
�����w�O,��������,2022/5/13,5:00,0,0
�����w�O,��������,2022/5/13,6:00,0,0
�����w�O,��������,2022/5/13,7:00,0,0
�����w�O,��������,2022/5/13,8:00,0,0
�����w�O,��������,2022/5/13,9:00,0,0
�����w�O,��������,2022/5/13,10:00,0,0
�����w�O,��������,2022/5/13,11:00,0,0
�����w�O,��������,2022/5/13,12:00,0,0
�����w�O,��������,2022/5/13,13:00,0,0
�����w�O,��������,2022/5/13,14:00,0,0
�����w�O,��������,2022/5/13,15:00,0,0
�����w�O,��������,2022/5/13,16:00,0,0
�����w�O,��������,2022/5/13,17:00,0,0
�����w�O,��������,2022/5/13,18:00,0,0
�����w�O,��������,2022/5/13,19:00,0,0
�����w�O,��������,2022/5/13,20:00,0,0
�����w�O,��������,2022/5/13,21:00,0,0
�����w�O,��������,2022/5/13,22:00,0,0
�����w�O,��������,2022/5/13,23:00,0,0
�����w�O,��������,2022/5/14,0:00,0,0
�����w�O,��������,2022/5/14,1:00,0,0
�����w�O,��������,2022/5/14,2:00,0,0
�����w�O,��������,2022/5/14,3:00,0,0
�����w�O,��������,2022/5/14,4:00,0,0
�����w�O,��������,2022/5/14,5:00,0,0
�����w�O,��������,2022/5/14,6:00,0,0
�����w�O,��������,2022/5/14,7:00,0,0
�����w�O,��������,2022/5/14,8:00,0,0
�����w�O,��������,2022/5/14,9:00,0,0
�����w�O,��������,2022/5/14,10:00,0,0
�����w�O,��������,2022/5/14,11:00,0,0
�����w�O,��������,2022/5/14,12:00,0,0
�����w�O,��������,2022/5/14,13:00,0,0
�����w�O,��������,2022/5/14,14:00,0,0
�����w�O,��������,2022/5/14,15:00,0,0
�����w�O,��������,2022/5/14,16:00,0,0
�����w�O,��������,2022/5/14,17:00,0,0
�����w�O,��������,2022/5/14,18:00,0,0
�����w�O,��������,2022/5/14,19:00,0,0
�����w�O,��������,2022/5/14,20:00,0,0
�����w�O,��������,2022/5/14,21:00,0,0
�����w�O,��������,2022/5/14,22:00,0,0
�����w�O,��������,2022/5/14,23:00,0,0
�����w�O,��������,2022/5/15,0:00,0,0
�����w�O,��������,2022/5/15,1:00,0,0
�����w�O,��������,2022/5/15,2:00,0,0
�����w�O,��������,2022/5/15,3:00,0,0
�����w�O,��������,2022/5/15,4:00,0,0
�����w�O,��������,2022/5/15,5:00,0,0
�����w�O,��������,2022/5/15,6:00,0,0
�����w�O,��������,2022/5/15,7:00,0,0
�����w�O,��������,2022/5/15,8:00,0,0
�����w�O,��������,2022/5/15,9:00,0,0
�����w�O,��������,2022/5/15,10:00,0,0
�����w�O,��������,2022/5/15,11:00,0,0
�����w�O,��������,2022/5/15,12:00,0,0
�����w�O,��������,2022/5/15,13:00,0,0
�����w�O,��������,2022/5/15,14:00,0,0
�����w�O,��������,2022/5/15,15:00,0,0
�����w�O,��������,2022/5/15,16:00,0,0
�����w�O,��������,2022/5/15,17:00,0,0
�����w�O,��������,2022/5/15,18:00,0,0
�����w�O,��������,2022/5/15,19:00,0,0
�����w�O,��������,2022/5/15,20:00,0,0
�����w�O,��������,2022/5/15,21:00,0,0
�����w�O,��������,2022/5/15,22:00,0,0
�����w�O,��������,2022/5/15,23:00,0,0
�����w�O,��������,2022/5/16,0:00,0,0
�����w�O,��������,2022/5/16,1:00,0,0
�����w�O,��������,2022/5/16,2:00,0,0
�����w�O,��������,2022/5/16,3:00,0,0
�����w�O,��������,2022/5/16,4:00,0,0
�����w�O,��������,2022/5/16,5:00,0,0
�����w�O,��������,2022/5/16,6:00,0,0
�����w�O,��������,2022/5/16,7:00,0,0
�����w�O,��������,2022/5/16,8:00,0,0
�����w�O,��������,2022/5/16,9:00,0,0
�����w�O,��������,2022/5/16,10:00,0,0
�����w�O,��������,2022/5/16,11:00,0,0
�����w�O,��������,2022/5/16,12:00,0,0
�����w�O,��������,2022/5/16,13:00,0,0
�����w�O,��������,2022/5/16,14:00,0,0
�����w�O,��������,2022/5/16,15:00,0,0
�����w�O,��������,2022/5/16,16:00,0,0
�����w�O,��������,2022/5/16,17:00,0,0
�����w�O,��������,2022/5/16,18:00,0,0
�����w�O,��������,2022/5/16,19:00,0,0
�����w�O,��������,2022/5/16,20:00,0,0
�����w�O,��������,2022/5/16,21:00,0,0
�����w�O,��������,2022/5/16,22:00,0,0
�����w�O,��������,2022/5/16,23:00,0,0
�����w�O,��������,2022/5/17,0:00,0,0
�����w�O,��������,2022/5/17,1:00,0,0
�����w�O,��������,2022/5/17,2:00,0,0
�����w�O,��������,2022/5/17,3:00,0,0
�����w�O,��������,2022/5/17,4:00,0,0
�����w�O,��������,2022/5/17,5:00,0,0
�����w�O,��������,2022/5/17,6:00,0,0
�����w�O,��������,2022/5/17,7:00,0,0
�����w�O,��������,2022/5/17,8:00,0,0
�����w�O,��������,2022/5/17,9:00,0,0
�����w�O,��������,2022/5/17,10:00,0,0
�����w�O,��������,2022/5/17,11:00,0,0
�����w�O,��������,2022/5/17,12:00,0,0
�����w�O,��������,2022/5/17,13:00,0,0
�����w�O,��������,2022/5/17,14:00,0,0
�����w�O,��������,2022/5/17,15:00,0,0
�����w�O,��������,2022/5/17,16:00,0,0
�����w�O,��������,2022/5/17,17:00,0,0
�����w�O,��������,2022/5/17,18:00,0,0
�����w�O,��������,2022/5/17,19:00,0,0
�����w�O,��������,2022/5/17,20:00,0,0
�����w�O,��������,2022/5/17,21:00,0,0
�����w�O,��������,2022/5/17,22:00,0,0
�����w�O,��������,2022/5/17,23:00,0,0
�����w�O,��������,2022/5/18,0:00,0,0
�����w�O,��������,2022/5/18,1:00,0,0
�����w�O,��������,2022/5/18,2:00,0,0
�����w�O,��������,2022/5/18,3:00,0,0
�����w�O,��������,2022/5/18,4:00,0,0
�����w�O,��������,2022/5/18,5:00,0,0
�����w�O,��������,2022/5/18,6:00,0,0
�����w�O,��������,2022/5/18,7:00,0,0
�����w�O,��������,2022/5/18,8:00,0,0
�����w�O,��������,2022/5/18,9:00,0,0
�����w�O,��������,2022/5/18,10:00,0,0
�����w�O,��������,2022/5/18,11:00,0,0
�����w�O,��������,2022/5/18,12:00,0,0
�����w�O,��������,2022/5/18,13:00,0,0
�����w�O,��������,2022/5/18,14:00,0,0
�����w�O,��������,2022/5/18,15:00,0,0
�����w�O,��������,2022/5/18,16:00,0,0
�����w�O,��������,2022/5/18,17:00,0,0
�����w�O,��������,2022/5/18,18:00,0,0
�����w�O,��������,2022/5/18,19:00,0,0
�����w�O,��������,2022/5/18,20:00,0,0
�����w�O,��������,2022/5/18,21:00,0,0
�����w�O,��������,2022/5/18,22:00,0,0
�����w�O,��������,2022/5/18,23:00,0,0
�����w�O,��������,2022/5/19,0:00,0,0
�����w�O,��������,2022/5/19,1:00,0,0
�����w�O,��������,2022/5/19,2:00,0,0
�����w�O,��������,2022/5/19,3:00,0,0
�����w�O,��������,2022/5/19,4:00,0,0
�����w�O,��������,2022/5/19,5:00,0,0
�����w�O,��������,2022/5/19,6:00,0,0
�����w�O,��������,2022/5/19,7:00,0,0
�����w�O,��������,2022/5/19,8:00,0,0
�����w�O,��������,2022/5/19,9:00,0,0
�����w�O,��������,2022/5/19,10:00,0,0
�����w�O,��������,2022/5/19,11:00,0,0
�����w�O,��������,2022/5/19,12:00,0,0
�����w�O,��������,2022/5/19,13:00,137,108
�����w�O,��������,2022/5/19,14:00,199,199
�����w�O,��������,2022/5/19,15:00,159,137
�����w�O,��������,2022/5/19,16:00,168,177
�����w�O,��������,2022/5/19,17:00,271,170
�����w�O,��������,2022/5/19,18:00,266,177
�����w�O,��������,2022/5/19,19:00,148,178
�����w�O,��������,2022/5/19,20:00,118,76
�����w�O,��������,2022/5/19,21:00,82,91
�����w�O,��������,2022/5/19,22:00,33,19
�����w�O,��������,2022/5/19,23:00,16,7
�����w�O,��������,2022/5/20,0:00,9,2
�����w�O,��������,2022/5/20,1:00,7,1
�����w�O,��������,2022/5/20,2:00,0,1
�����w�O,��������,2022/5/20,3:00,0,1
�����w�O,��������,2022/5/20,4:00,4,1
�����w�O,��������,2022/5/20,5:00,4,4
�����w�O,��������,2022/5/20,6:00,100,72
�����w�O,��������,2022/5/20,7:00,216,342
�����w�O,��������,2022/5/20,8:00,129,256
�����w�O,��������,2022/5/20,9:00,122,168
�����w�O,��������,2022/5/20,10:00,185,239
�����w�O,��������,2022/5/20,11:00,151,199
�����w�O,��������,2022/5/20,12:00,199,237
�����w�O,��������,2022/5/20,13:00,307,220
�����w�O,��������,2022/5/20,14:00,231,179
�����w�O,��������,2022/5/20,15:00,213,168
�����w�O,��������,2022/5/20,16:00,292,194
�����w�O,��������,2022/5/20,17:00,341,245
�����w�O,��������,2022/5/20,18:00,359,240
�����w�O,��������,2022/5/20,19:00,165,196
�����w�O,��������,2022/5/20,20:00,128,115
�����w�O,��������,2022/5/20,21:00,101,110
�����w�O,��������,2022/5/20,22:00,59,48
�����w�O,��������,2022/5/20,23:00,45,20
�����w�O,��������,2022/5/21,0:00,22,10
�����w�O,��������,2022/5/21,1:00,4,2
�����w�O,��������,2022/5/21,2:00,3,0
�����w�O,��������,2022/5/21,3:00,14,9
�����w�O,��������,2022/5/21,4:00,2,5
�����w�O,��������,2022/5/21,5:00,9,15
�����w�O,��������,2022/5/21,6:00,50,46
�����w�O,��������,2022/5/21,7:00,100,193
�����w�O,��������,2022/5/21,8:00,128,227
�����w�O,��������,2022/5/21,9:00,242,315
�����w�O,��������,2022/5/21,10:00,314,384
�����w�O,��������,2022/5/21,11:00,308,420
�����w�O,��������,2022/5/21,12:00,292,303
�����w�O,��������,2022/5/21,13:00,307,230
�����w�O,��������,2022/5/21,14:00,334,270
�����w�O,��������,2022/5/21,15:00,302,200
�����w�O,��������,2022/5/21,16:00,371,261
�����w�O,��������,2022/5/21,17:00,239,225
�����w�O,��������,2022/5/21,18:00,273,226
�����w�O,��������,2022/5/21,19:00,185,207
�����w�O,��������,2022/5/21,20:00,127,105
�����w�O,��������,2022/5/21,21:00,135,98
�����w�O,��������,2022/5/21,22:00,68,45
�����w�O,��������,2022/5/21,23:00,39,19
�����w�O,��������,2022/5/22,0:00,5,10
�����w�O,��������,2022/5/22,1:00,5,1
�����w�O,��������,2022/5/22,2:00,3,1
�����w�O,��������,2022/5/22,3:00,1,1
�����w�O,��������,2022/5/22,4:00,1,1
�����w�O,��������,2022/5/22,5:00,17,13
�����w�O,��������,2022/5/22,6:00,26,40
�����w�O,��������,2022/5/22,7:00,96,110
�����w�O,��������,2022/5/22,8:00,105,140
�����w�O,��������,2022/5/22,9:00,172,202
�����w�O,��������,2022/5/22,10:00,270,395
�����w�O,��������,2022/5/22,11:00,257,376
�����w�O,��������,2022/5/22,12:00,292,314
�����w�O,��������,2022/5/22,13:00,339,267
�����w�O,��������,2022/5/22,14:00,369,258
�����w�O,��������,2022/5/22,15:00,433,270
�����w�O,��������,2022/5/22,16:00,295,218
�����w�O,��������,2022/5/22,17:00,307,217
�����w�O,��������,2022/5/22,18:00,259,193
�����w�O,��������,2022/5/22,19:00,155,159
�����w�O,��������,2022/5/22,20:00,112,125
�����w�O,��������,2022/5/22,21:00,77,87
�����w�O,��������,2022/5/22,22:00,36,29
�����w�O,��������,2022/5/22,23:00,16,8
�����w�O,��������,2022/5/23,0:00,5,5
�����w�O,��������,2022/5/23,1:00,1,0
�����w�O,��������,2022/5/23,2:00,1,1
�����w�O,��������,2022/5/23,3:00,0,0
�����w�O,��������,2022/5/23,4:00,6,2
�����w�O,��������,2022/5/23,5:00,7,8
�����w�O,��������,2022/5/23,6:00,108,58
�����w�O,��������,2022/5/23,7:00,196,329
�����w�O,��������,2022/5/23,8:00,149,261
�����w�O,��������,2022/5/23,9:00,155,184
�����w�O,��������,2022/5/23,10:00,180,189
�����w�O,��������,2022/5/23,11:00,173,198
�����w�O,��������,2022/5/23,12:00,212,236
�����w�O,��������,2022/5/23,13:00,216,177
�����w�O,��������,2022/5/23,14:00,186,180
�����w�O,��������,2022/5/23,15:00,252,157
�����w�O,��������,2022/5/23,16:00,273,197
�����w�O,��������,2022/5/23,17:00,287,205
�����w�O,��������,2022/5/23,18:00,319,178
�����w�O,��������,2022/5/23,19:00,163,175
�����w�O,��������,2022/5/23,20:00,132,89
�����w�O,��������,2022/5/23,21:00,42,50
�����w�O,��������,2022/5/23,22:00,37,17
�����w�O,��������,2022/5/23,23:00,26,10
�����w�O,��������,2022/5/24,0:00,2,2
�����w�O,��������,2022/5/24,1:00,2,0
�����w�O,��������,2022/5/24,2:00,0,1
�����w�O,��������,2022/5/24,3:00,1,0
�����w�O,��������,2022/5/24,4:00,4,3
�����w�O,��������,2022/5/24,5:00,13,11
�����w�O,��������,2022/5/24,6:00,91,62
�����w�O,��������,2022/5/24,7:00,222,301
�����w�O,��������,2022/5/24,8:00,146,302
�����w�O,��������,2022/5/24,9:00,139,136
�����w�O,��������,2022/5/24,10:00,123,153
�����w�O,��������,2022/5/24,11:00,180,186
�����w�O,��������,2022/5/24,12:00,205,201
�����w�O,��������,2022/5/24,13:00,168,146
�����w�O,��������,2022/5/24,14:00,110,124
�����w�O,��������,2022/5/24,15:00,258,121
�����w�O,��������,2022/5/24,16:00,206,147
�����w�O,��������,2022/5/24,17:00,312,210
�����w�O,��������,2022/5/24,18:00,294,227
�����w�O,��������,2022/5/24,19:00,231,212
�����w�O,��������,2022/5/24,20:00,126,112
�����w�O,��������,2022/5/24,21:00,95,209
�����w�O,��������,2022/5/24,22:00,63,40
�����w�O,��������,2022/5/24,23:00,22,16
�����w�O,��������,2022/5/25,0:00,4,1
�����w�O,��������,2022/5/25,1:00,1,0
�����w�O,��������,2022/5/25,2:00,1,1
�����w�O,��������,2022/5/25,3:00,1,0
�����w�O,��������,2022/5/25,4:00,4,5
�����w�O,��������,2022/5/25,5:00,8,6
�����w�O,��������,2022/5/25,6:00,85,62
�����w�O,��������,2022/5/25,7:00,214,305
�����w�O,��������,2022/5/25,8:00,167,285
�����w�O,��������,2022/5/25,9:00,146,168
�����w�O,��������,2022/5/25,10:00,154,173
�����w�O,��������,2022/5/25,11:00,166,194
�����w�O,��������,2022/5/25,12:00,225,222
�����w�O,��������,2022/5/25,13:00,226,170
�����w�O,��������,2022/5/25,14:00,144,133
�����w�O,��������,2022/5/25,15:00,275,131
�����w�O,��������,2022/5/25,16:00,334,300
�����w�O,��������,2022/5/25,17:00,329,272
�����w�O,��������,2022/5/25,18:00,273,203
�����w�O,��������,2022/5/25,19:00,196,205
�����w�O,��������,2022/5/25,20:00,117,78
�����w�O,��������,2022/5/25,21:00,167,174
�����w�O,��������,2022/5/25,22:00,37,37
�����w�O,��������,2022/5/25,23:00,25,21
�����w�O,��������,2022/5/26,0:00,8,3
�����w�O,��������,2022/5/26,1:00,3,1
�����w�O,��������,2022/5/26,2:00,0,0
�����w�O,��������,2022/5/26,3:00,0,2
�����w�O,��������,2022/5/26,4:00,2,2
�����w�O,��������,2022/5/26,5:00,12,13
�����w�O,��������,2022/5/26,6:00,97,60